sat.trackr.live / text

‹ back to catalog

STARLINK-3048

NORAD 49148 · 2021-082U

PAYLOAD ACTIVE UNKNOWN

§ Identity

Operator
Country
US
Launch date
2021-09-14
Launch site
AFWTR
Launch vehicle
Mass (kg)
RCS (m²)

Purposes: comms

External: N2YO · Heavens-Above · Gunter

§ Orbital elements

Epoch: 2026-09-20T02:34:11.896032Z

Period
96.16 min
Inclination
69.9984°
Eccentricity
0.0002951
Mean motion
14.97515564 rev/d
Perigee alt
572.5 km
Apogee alt
576.6 km
Semi-major
6,952.7 km
B*
-8.5241e-5
RAAN
145.6502°
Arg perigee
272.4577°
Mean anomaly
87.6244°
Rev number
27,555

§ Raw data

STARLINK-30481 49148U 21082U   26263.10708213 -.00001088  00000+0 -85241-4 0  99922 49148  69.9984 145.6502 0002951 272.4577  87.6244 14.97515564275559

JSON: /api/v1/satellites/49148 · /tle

For live sub-satellite position, see the globe view (requires WebGL).

§ Visibility from observer

Set your observer location to see the next 7 days of passes ≥ 10°. The values pass through the URL so the page stays shareable.

No JS? Fill the form by hand. The geolocation button needs JavaScript.